Location: Southlake
(32.9412°N, 97.1342°W)
Time: 10:01:34
(UTC+00:00)

Cosmos 841 Rocket - Pass Details

Date: 03 December 2021
Orbit: 746 x 772 km, 74.0° (Epoch: 23 January)

Event Time Altitude Azimuth Distance (km) Brightness Sun altitude
Rises 23:42:03 0° 187° (S) 3,195 7.2 -4.7°
Reaches altitude 10° 23:44:26 10° 184° (S) 2,270 6.3 -5.2°
Maximum altitude 23:49:30 62° 104° (ESE) 841 3.5 -6.2°
Drops below altitude 10° 23:54:34 10° 24° (NNE) 2,270 5.5 -7.1°
Sets 23:56:57 0° 21° (NNE) 3,196 6.3 -7.6°
